contact:dominique.lefevre@mio.osupytheas.fr, maurice.libes@osupytheas.fr, didier.mallarino@osupytheas.fr
Project:EMSO http://www.emso-fr.org/EMSO-France
Depth: 2436.0 m
Title:EMSO Ligure Ouest : Data MII capteur MICROCAT
DateTime_Computer,Latitude,Longitude,Temperature,Conductivity,Pressure,DateTime_Instrument
DateTime_Computer,Latitude,Longitude,degC,S m-1,dbar,DateTime_Instrument
2021-11-22T10:28:08Z,42.805,6.029,13.2991,4.60014,2470.38,2021-11-22T12:29:35Z
2021-11-22T10:31:11Z,42.805,6.029,13.2995,4.60016,2470.343,2021-11-22T12:32:38Z
2021-11-22T10:34:14Z,42.805,6.029,13.2992,4.60021,2470.366,2021-11-22T12:35:41Z
2021-11-22T10:37:17Z,42.805,6.029,13.2998,4.60029,2470.343,2021-11-22T12:38:44Z
2021-11-22T10:40:21Z,42.805,6.029,13.2995,4.60031,2470.366,2021-11-22T12:41:47Z
2021-11-22T10:43:24Z,42.805,6.029,13.3008,4.60056,2470.343,2021-11-22T12:44:50Z
2021-11-22T10:46:27Z,42.805,6.029,13.3006,4.60024,2470.357,2021-11-22T12:47:53Z
2021-11-22T10:49:30Z,42.805,6.029,13.3015,4.60021,2470.343,2021-11-22T12:50:57Z
2021-11-22T10:52:33Z,42.805,6.029,13.3002,4.60023,2470.273,2021-11-22T12:54:00Z
2021-11-22T10:55:36Z,42.805,6.029,13.3005,4.60020,2470.32,2021-11-22T12:57:03Z
2021-11-22T10:58:39Z,42.805,6.029,13.3018,4.60036,2470.32,2021-11-22T13:00:06Z
2021-11-22T11:01:43Z,42.805,6.029,13.3011,4.60033,2470.334,2021-11-22T13:03:09Z
2021-11-22T11:04:46Z,42.805,6.029,13.3013,4.60049,2470.31,2021-11-22T13:06:12Z
2021-11-22T11:07:49Z,42.805,6.029,13.3006,4.60045,2470.32,2021-11-22T13:09:15Z
2021-11-22T11:10:52Z,42.805,6.029,13.3009,4.60057,2470.31,2021-11-22T13:12:18Z
2021-11-22T11:13:55Z,42.805,6.029,13.3005,4.60057,2470.334,2021-11-22T13:15:22Z
2021-11-22T11:16:58Z,42.805,6.029,13.3019,4.60052,2470.297,2021-11-22T13:18:25Z
2021-11-22T11:20:01Z,42.805,6.029,13.3021,4.60082,2470.297,2021-11-22T13:21:28Z
2021-11-22T11:23:04Z,42.805,6.029,13.3015,4.60098,2470.31,2021-11-22T13:24:31Z
2021-11-22T11:26:08Z,42.805,6.029,13.3007,4.60045,2470.25,2021-11-22T13:27:34Z
2021-11-22T11:29:11Z,42.805,6.029,13.3029,4.60074,2470.334,2021-11-22T13:30:37Z
2021-11-22T11:32:14Z,42.805,6.029,13.3035,4.60057,2470.31,2021-11-22T13:33:40Z
2021-11-22T11:35:17Z,42.805,6.029,13.3056,4.60057,2470.273,2021-11-22T13:36:43Z
2021-11-22T11:38:20Z,42.805,6.029,13.3053,4.60057,2470.297,2021-11-22T13:39:47Z
2021-11-22T11:41:23Z,42.805,6.029,13.3056,4.60089,2470.287,2021-11-22T13:42:50Z
2021-11-22T11:44:26Z,42.805,6.029,13.3061,4.60037,2470.273,2021-11-22T13:45:53Z
2021-11-22T11:47:29Z,42.805,6.029,13.3024,4.60044,2470.287,2021-11-22T13:48:56Z
2021-11-22T11:50:33Z,42.805,6.029,13.3044,4.60077,2470.31,2021-11-22T13:51:59Z
2021-11-22T11:53:36Z,42.805,6.029,13.3045,4.60080,2470.273,2021-11-22T13:55:02Z
2021-11-22T11:56:39Z,42.805,6.029,13.3041,4.60067,2470.273,2021-11-22T13:58:05Z
2021-11-22T11:59:42Z,42.805,6.029,13.3069,4.60049,2470.273,2021-11-22T14:01:09Z
2021-11-22T12:02:45Z,42.805,6.029,13.3024,4.60049,2470.25,2021-11-22T14:04:12Z
2021-11-22T12:05:48Z,42.805,6.029,13.3045,4.60047,2470.25,2021-11-22T14:07:15Z
2021-11-22T12:08:51Z,42.805,6.029,13.3039,4.60072,2470.273,2021-11-22T14:10:18Z
2021-11-22T12:11:54Z,42.805,6.029,13.3027,4.60042,2470.25,2021-11-22T14:13:21Z
2021-11-22T12:14:58Z,42.805,6.029,13.3011,4.60049,2470.273,2021-11-22T14:16:24Z
2021-11-22T12:18:01Z,42.805,6.029,13.3031,4.60054,2470.297,2021-11-22T14:19:27Z
2021-11-22T12:21:04Z,42.805,6.029,13.3023,4.60039,2470.287,2021-11-22T14:22:30Z
2021-11-22T12:24:07Z,42.805,6.029,13.3024,4.60064,2470.25,2021-11-22T14:25:34Z
2021-11-22T12:27:10Z,42.805,6.029,13.3014,4.60046,2470.25,2021-11-22T14:28:37Z
2021-11-22T12:30:13Z,42.805,6.029,13.3021,4.60050,2470.264,2021-11-22T14:31:40Z
2021-11-22T12:33:16Z,42.805,6.029,13.3019,4.60060,2470.25,2021-11-22T14:34:43Z
2021-11-22T12:36:19Z,42.805,6.029,13.3021,4.60044,2470.217,2021-11-22T14:37:46Z
2021-11-22T12:39:23Z,42.805,6.029,13.3019,4.60040,2470.264,2021-11-22T14:40:49Z
2021-11-22T12:42:26Z,42.805,6.029,13.3014,4.60040,2470.24,2021-11-22T14:43:52Z
2021-11-22T12:45:29Z,42.805,6.029,13.3017,4.60031,2470.24,2021-11-22T14:46:55Z
2021-11-22T12:48:32Z,42.805,6.029,13.3028,4.60038,2470.24,2021-11-22T14:49:59Z
2021-11-22T12:51:35Z,42.805,6.029,13.3017,4.60036,2470.24,2021-11-22T14:53:02Z
2021-11-22T12:54:38Z,42.805,6.029,13.3044,4.60079,2470.25,2021-11-22T14:56:05Z
2021-11-22T12:57:41Z,42.805,6.029,13.3029,4.60073,2470.25,2021-11-22T14:59:08Z
2021-11-22T13:00:45Z,42.805,6.029,13.3019,4.60043,2470.24,2021-11-22T15:02:11Z
2021-11-22T13:03:48Z,42.805,6.029,13.3037,4.60036,2470.264,2021-11-22T15:05:14Z
2021-11-22T13:06:51Z,42.805,6.029,13.3022,4.60036,2470.25,2021-11-22T15:08:17Z
2021-11-22T13:09:54Z,42.805,6.029,13.3010,4.60054,2470.24,2021-11-22T15:11:20Z
2021-11-22T13:12:57Z,42.805,6.029,13.3020,4.60049,2470.227,2021-11-22T15:14:24Z
2021-11-22T13:16:00Z,42.805,6.029,13.3023,4.60054,2470.227,2021-11-22T15:17:27Z
2021-11-22T13:19:03Z,42.805,6.029,13.3014,4.60062,2470.25,2021-11-22T15:20:30Z
2021-11-22T13:22:06Z,42.805,6.029,13.3018,4.60033,2470.24,2021-11-22T15:23:33Z
2021-11-22T13:25:10Z,42.805,6.029,13.3014,4.60054,2470.24,2021-11-22T15:26:36Z
2021-11-22T13:28:13Z,42.805,6.029,13.3009,4.60079,2470.24,2021-11-22T15:29:39Z
2021-11-22T13:31:16Z,42.805,6.029,13.3012,4.60081,2470.24,2021-11-22T15:32:42Z
2021-11-22T13:34:19Z,42.805,6.029,13.3023,4.60077,2470.217,2021-11-22T15:35:46Z
2021-11-22T13:37:22Z,42.805,6.029,13.3019,4.60049,2470.25,2021-11-22T15:38:49Z
2021-11-22T13:40:25Z,42.805,6.029,13.3030,4.60074,2470.18,2021-11-22T15:41:52Z
2021-11-22T13:43:28Z,42.805,6.029,13.3011,4.60046,2470.24,2021-11-22T15:44:55Z
2021-11-22T13:46:31Z,42.805,6.029,13.3023,4.60084,2470.227,2021-11-22T15:47:58Z
2021-11-22T13:49:35Z,42.805,6.029,13.3031,4.60032,2470.217,2021-11-22T15:51:01Z
2021-11-22T13:52:38Z,42.805,6.029,13.3015,4.60054,2470.203,2021-11-22T15:54:04Z
2021-11-22T13:55:41Z,42.805,6.029,13.3050,4.60051,2470.24,2021-11-22T15:57:07Z
2021-11-22T13:58:44Z,42.805,6.029,13.3034,4.60042,2470.24,2021-11-22T16:00:11Z
2021-11-22T14:01:47Z,42.805,6.029,13.3021,4.60054,2470.227,2021-11-22T16:03:14Z
2021-11-22T14:04:50Z,42.805,6.029,13.3020,4.60075,2470.217,2021-11-22T16:06:17Z
2021-11-22T14:07:53Z,42.805,6.029,13.3039,4.60039,2470.217,2021-11-22T16:09:20Z
2021-11-22T14:10:56Z,42.805,6.029,13.3021,4.60056,2470.203,2021-11-22T16:12:23Z
2021-11-22T14:14:00Z,42.805,6.029,13.3007,4.60070,2470.217,2021-11-22T16:15:26Z
2021-11-22T14:17:03Z,42.805,6.029,13.3026,4.60055,2470.227,2021-11-22T16:18:29Z
2021-11-22T14:20:06Z,42.805,6.029,13.3031,4.60039,2470.273,2021-11-22T16:21:32Z
2021-11-22T14:23:09Z,42.805,6.029,13.3022,4.60029,2470.24,2021-11-22T16:24:36Z
2021-11-22T14:26:12Z,42.805,6.029,13.3019,4.60026,2470.217,2021-11-22T16:27:39Z
2021-11-22T14:29:15Z,42.805,6.029,13.3043,4.60040,2470.227,2021-11-22T16:30:42Z
2021-11-22T14:32:18Z,42.805,6.029,13.3011,4.60056,2470.203,2021-11-22T16:33:45Z
2021-11-22T14:35:21Z,42.805,6.029,13.3051,4.60064,2470.227,2021-11-22T16:36:48Z
2021-11-22T14:38:25Z,42.805,6.029,13.3024,4.60056,2470.203,2021-11-22T16:39:51Z
2021-11-22T14:41:28Z,42.805,6.029,13.3016,4.60051,2470.227,2021-11-22T16:42:54Z
2021-11-22T14:44:31Z,42.805,6.029,13.3018,4.60046,2470.227,2021-11-22T16:45:57Z
2021-11-22T14:47:34Z,42.805,6.029,13.3026,4.60048,2470.217,2021-11-22T16:49:01Z
2021-11-22T14:50:37Z,42.805,6.029,13.3021,4.60041,2470.227,2021-11-22T16:52:04Z
2021-11-22T14:53:40Z,42.805,6.029,13.3035,4.60034,2470.217,2021-11-22T16:55:07Z
2021-11-22T14:56:43Z,42.805,6.029,13.3026,4.60035,2470.203,2021-11-22T16:58:10Z
2021-11-22T14:59:46Z,42.805,6.029,13.3028,4.60077,2470.217,2021-11-22T17:01:13Z
2021-11-22T15:02:50Z,42.805,6.029,13.3042,4.60046,2470.227,2021-11-22T17:04:16Z
2021-11-22T15:05:53Z,42.805,6.029,13.3032,4.60057,2470.203,2021-11-22T17:07:19Z
2021-11-22T15:08:56Z,42.805,6.029,13.3015,4.60070,2470.203,2021-11-22T17:10:22Z
2021-11-22T15:11:59Z,42.805,6.029,13.3030,4.60093,2470.264,2021-11-22T17:13:26Z
2021-11-22T15:15:02Z,42.805,6.029,13.3054,4.60052,2470.18,2021-11-22T17:16:29Z
2021-11-22T15:18:05Z,42.805,6.029,13.3053,4.60047,2470.203,2021-11-22T17:19:32Z
2021-11-22T15:21:08Z,42.805,6.029,13.3063,4.60055,2470.24,2021-11-22T17:22:35Z
2021-11-22T15:24:12Z,42.805,6.029,13.3024,4.60052,2470.194,2021-11-22T17:25:38Z
2021-11-22T15:27:15Z,42.805,6.029,13.3031,4.60063,2470.24,2021-11-22T17:28:41Z
2021-11-22T15:30:18Z,42.805,6.029,13.3048,4.60053,2470.24,2021-11-22T17:31:44Z
2021-11-22T15:33:21Z,42.805,6.029,13.3040,4.60031,2470.203,2021-11-22T17:34:47Z
2021-11-22T15:36:24Z,42.805,6.029,13.3030,4.60043,2470.217,2021-11-22T17:37:51Z
2021-11-22T15:39:27Z,42.805,6.029,13.3026,4.60044,2470.24,2021-11-22T17:40:54Z
2021-11-22T15:42:30Z,42.805,6.029,13.3035,4.60041,2470.194,2021-11-22T17:43:57Z
2021-11-22T15:45:33Z,42.805,6.029,13.3044,4.60034,2470.217,2021-11-22T17:47:00Z
2021-11-22T15:48:37Z,42.805,6.029,13.3045,4.60069,2470.156,2021-11-22T17:50:03Z
2021-11-22T15:51:40Z,42.805,6.029,13.3034,4.60076,2470.203,2021-11-22T17:53:06Z
2021-11-22T15:54:43Z,42.805,6.029,13.3039,4.60074,2470.194,2021-11-22T17:56:09Z
2021-11-22T15:57:46Z,42.805,6.029,13.3038,4.60047,2470.217,2021-11-22T17:59:12Z
2021-11-22T16:00:49Z,42.805,6.029,13.3035,4.60065,2470.24,2021-11-22T18:02:16Z
2021-11-22T16:03:52Z,42.805,6.029,13.3035,4.60048,2470.217,2021-11-22T18:05:19Z
2021-11-22T16:06:55Z,42.805,6.029,13.3029,4.60047,2470.194,2021-11-22T18:08:22Z
2021-11-22T16:09:58Z,42.805,6.029,13.3019,4.60056,2470.203,2021-11-22T18:11:25Z
2021-11-22T16:13:02Z,42.805,6.029,13.3039,4.60069,2470.25,2021-11-22T18:14:28Z
2021-11-22T16:16:05Z,42.805,6.029,13.3026,4.60051,2470.24,2021-11-22T18:17:31Z
2021-11-22T16:19:08Z,42.805,6.029,13.3036,4.60064,2470.203,2021-11-22T18:20:34Z
2021-11-22T16:22:11Z,42.805,6.029,13.3027,4.60028,2470.203,2021-11-22T18:23:38Z
2021-11-22T16:25:14Z,42.805,6.029,13.3025,4.60034,2470.217,2021-11-22T18:26:41Z
2021-11-22T16:28:17Z,42.805,6.029,13.3024,4.60031,2470.18,2021-11-22T18:29:44Z
2021-11-22T16:31:20Z,42.805,6.029,13.3011,4.60086,2470.227,2021-11-22T18:32:47Z
2021-11-22T16:34:23Z,42.805,6.029,13.3034,4.60039,2470.227,2021-11-22T18:35:50Z
2021-11-22T16:37:27Z,42.805,6.029,13.3025,4.60064,2470.227,2021-11-22T18:38:53Z
2021-11-22T16:40:30Z,42.805,6.029,13.3021,4.60068,2470.24,2021-11-22T18:41:56Z
2021-11-22T16:43:33Z,42.805,6.029,13.3048,4.60049,2470.217,2021-11-22T18:44:59Z
2021-11-22T16:46:36Z,42.805,6.029,13.3026,4.60050,2470.217,2021-11-22T18:48:03Z
2021-11-22T16:49:39Z,42.805,6.029,13.3021,4.60046,2470.18,2021-11-22T18:51:06Z
2021-11-22T16:52:42Z,42.805,6.029,13.3044,4.60032,2470.227,2021-11-22T18:54:09Z
2021-11-22T16:55:45Z,42.805,6.029,13.3040,4.60034,2470.24,2021-11-22T18:57:12Z
2021-11-22T16:58:48Z,42.805,6.029,13.3025,4.60041,2470.24,2021-11-22T19:00:15Z
2021-11-22T17:01:52Z,42.805,6.029,13.3029,4.60057,2470.24,2021-11-22T19:03:18Z
2021-11-22T17:04:55Z,42.805,6.029,13.3026,4.60056,2470.25,2021-11-22T19:06:21Z
2021-11-22T17:07:58Z,42.805,6.029,13.3048,4.60040,2470.25,2021-11-22T19:09:24Z
2021-11-22T17:11:01Z,42.805,6.029,13.3038,4.60052,2470.24,2021-11-22T19:12:28Z
2021-11-22T17:14:04Z,42.805,6.029,13.3074,4.60038,2470.217,2021-11-22T19:15:31Z
2021-11-22T17:17:07Z,42.805,6.029,13.3059,4.60049,2470.264,2021-11-22T19:18:34Z
2021-11-22T17:20:10Z,42.805,6.029,13.3054,4.60054,2470.24,2021-11-22T19:21:37Z
2021-11-22T17:23:13Z,42.805,6.029,13.3020,4.60084,2470.217,2021-11-22T19:24:40Z
2021-11-22T17:26:17Z,42.805,6.029,13.3045,4.60074,2470.24,2021-11-22T19:27:43Z
2021-11-22T17:29:20Z,42.805,6.029,13.3053,4.60058,2470.24,2021-11-22T19:30:46Z
2021-11-22T17:32:23Z,42.805,6.029,13.3050,4.60061,2470.227,2021-11-22T19:33:49Z
2021-11-22T17:35:26Z,42.805,6.029,13.3064,4.60041,2470.264,2021-11-22T19:36:53Z
2021-11-22T17:38:29Z,42.805,6.029,13.3048,4.60040,2470.24,2021-11-22T19:39:56Z
2021-11-22T17:41:32Z,42.805,6.029,13.3051,4.60085,2470.287,2021-11-22T19:42:59Z
2021-11-22T17:44:35Z,42.805,6.029,13.3056,4.60075,2470.227,2021-11-22T19:46:02Z
2021-11-22T17:47:38Z,42.805,6.029,13.3068,4.60087,2470.264,2021-11-22T19:49:05Z
2021-11-22T17:50:42Z,42.805,6.029,13.3070,4.60068,2470.264,2021-11-22T19:52:08Z
2021-11-22T17:53:45Z,42.805,6.029,13.3043,4.60069,2470.264,2021-11-22T19:55:11Z
2021-11-22T17:56:48Z,42.805,6.029,13.3014,4.60048,2470.273,2021-11-22T19:58:15Z
2021-11-22T17:59:51Z,42.805,6.029,13.3045,4.60091,2470.278,2021-11-22T20:01:18Z
2021-11-22T18:02:54Z,42.805,6.029,13.3048,4.60062,2470.264,2021-11-22T20:04:21Z
2021-11-22T18:05:57Z,42.805,6.029,13.3038,4.60060,2470.287,2021-11-22T20:07:24Z
2021-11-22T18:09:00Z,42.805,6.029,13.3045,4.60064,2470.264,2021-11-22T20:10:27Z
2021-11-22T18:12:04Z,42.805,6.029,13.3025,4.60073,2470.273,2021-11-22T20:13:30Z
2021-11-22T18:15:07Z,42.805,6.029,13.3025,4.60081,2470.24,2021-11-22T20:16:33Z
2021-11-22T18:18:10Z,42.805,6.029,13.3015,4.60067,2470.273,2021-11-22T20:19:36Z
2021-11-22T18:21:13Z,42.805,6.029,13.3019,4.60060,2470.264,2021-11-22T20:22:40Z
2021-11-22T18:24:16Z,42.805,6.029,13.3041,4.60099,2470.264,2021-11-22T20:25:43Z
2021-11-22T18:27:19Z,42.805,6.029,13.3060,4.60087,2470.287,2021-11-22T20:28:46Z
2021-11-22T18:30:22Z,42.805,6.029,13.3056,4.60103,2470.25,2021-11-22T20:31:49Z
2021-11-22T18:33:25Z,42.805,6.029,13.3036,4.60102,2470.273,2021-11-22T20:34:52Z
2021-11-22T18:36:29Z,42.805,6.029,13.3055,4.60118,2470.264,2021-11-22T20:37:55Z
2021-11-22T18:39:32Z,42.805,6.029,13.3081,4.60084,2470.273,2021-11-22T20:40:58Z
2021-11-22T18:42:35Z,42.805,6.029,13.3032,4.60074,2470.297,2021-11-22T20:44:01Z
2021-11-22T18:45:38Z,42.805,6.029,13.3041,4.60086,2470.287,2021-11-22T20:47:05Z
2021-11-22T18:48:41Z,42.805,6.029,13.3058,4.60072,2470.287,2021-11-22T20:50:08Z
2021-11-22T18:51:44Z,42.805,6.029,13.3056,4.60067,2470.273,2021-11-22T20:53:11Z
2021-11-22T18:54:47Z,42.805,6.029,13.3036,4.60104,2470.287,2021-11-22T20:56:14Z
2021-11-22T18:57:50Z,42.805,6.029,13.3047,4.60062,2470.31,2021-11-22T20:59:17Z
2021-11-22T19:00:54Z,42.805,6.029,13.3055,4.60093,2470.31,2021-11-22T21:02:20Z
2021-11-22T19:03:57Z,42.805,6.029,13.3056,4.60085,2470.25,2021-11-22T21:05:23Z
2021-11-22T19:07:00Z,42.805,6.029,13.3051,4.60078,2470.31,2021-11-22T21:08:26Z
2021-11-22T19:10:03Z,42.805,6.029,13.3043,4.60094,2470.334,2021-11-22T21:11:30Z
2021-11-22T19:13:06Z,42.805,6.029,13.3037,4.60093,2470.32,2021-11-22T21:14:33Z
2021-11-22T19:16:09Z,42.805,6.029,13.3029,4.60092,2470.32,2021-11-22T21:17:36Z
2021-11-22T19:19:12Z,42.805,6.029,13.3061,4.60095,2470.334,2021-11-22T21:20:39Z
2021-11-22T19:22:16Z,42.805,6.029,13.3071,4.60107,2470.273,2021-11-22T21:23:42Z
2021-11-22T19:25:19Z,42.805,6.029,13.3070,4.60094,2470.32,2021-11-22T21:26:45Z
2021-11-22T19:28:22Z,42.805,6.029,13.3061,4.60102,2470.31,2021-11-22T21:29:48Z
2021-11-22T19:31:25Z,42.805,6.029,13.3059,4.60092,2470.297,2021-11-22T21:32:51Z
2021-11-22T19:34:28Z,42.805,6.029,13.3051,4.60122,2470.297,2021-11-22T21:35:55Z
2021-11-22T19:37:31Z,42.805,6.029,13.3051,4.60089,2470.31,2021-11-22T21:38:58Z
2021-11-22T19:40:34Z,42.805,6.029,13.3063,4.60106,2470.32,2021-11-22T21:42:01Z
2021-11-22T19:43:37Z,42.805,6.029,13.3069,4.60079,2470.31,2021-11-22T21:45:04Z
2021-11-22T19:46:41Z,42.805,6.029,13.3049,4.60089,2470.31,2021-11-22T21:48:07Z
2021-11-22T19:49:44Z,42.805,6.029,13.3059,4.60075,2470.31,2021-11-22T21:51:10Z
2021-11-22T19:52:47Z,42.805,6.029,13.3021,4.60076,2470.297,2021-11-22T21:54:13Z
2021-11-22T19:55:50Z,42.805,6.029,13.3012,4.60096,2470.32,2021-11-22T21:57:17Z
2021-11-22T19:58:53Z,42.805,6.029,13.3034,4.60089,2470.32,2021-11-22T22:00:20Z
2021-11-22T20:01:56Z,42.805,6.029,13.3031,4.60081,2470.31,2021-11-22T22:03:23Z
2021-11-22T20:04:59Z,42.805,6.029,13.3039,4.60076,2470.334,2021-11-22T22:06:26Z
2021-11-22T20:08:02Z,42.805,6.029,13.3036,4.60076,2470.31,2021-11-22T22:09:29Z
2021-11-22T20:11:06Z,42.805,6.029,13.3044,4.60074,2470.334,2021-11-22T22:12:32Z
2021-11-22T20:14:09Z,42.805,6.029,13.3051,4.60067,2470.297,2021-11-22T22:15:35Z
2021-11-22T20:17:12Z,42.805,6.029,13.3031,4.60069,2470.32,2021-11-22T22:18:38Z
2021-11-22T20:20:15Z,42.805,6.029,13.3040,4.60092,2470.357,2021-11-22T22:21:42Z
2021-11-22T20:23:18Z,42.805,6.029,13.3043,4.60092,2470.32,2021-11-22T22:24:45Z
2021-11-22T20:26:21Z,42.805,6.029,13.3033,4.60098,2470.357,2021-11-22T22:27:48Z
2021-11-22T20:29:24Z,42.805,6.029,13.3052,4.60081,2470.32,2021-11-22T22:30:51Z
2021-11-22T20:32:27Z,42.805,6.029,13.3054,4.60059,2470.334,2021-11-22T22:33:54Z
2021-11-22T20:35:31Z,42.805,6.029,13.3036,4.60077,2470.31,2021-11-22T22:36:57Z
2021-11-22T20:38:34Z,42.805,6.029,13.3039,4.60094,2470.334,2021-11-22T22:40:00Z
2021-11-22T20:41:37Z,42.805,6.029,13.3036,4.60087,2470.31,2021-11-22T22:43:03Z
2021-11-22T20:44:40Z,42.805,6.029,13.3048,4.60069,2470.343,2021-11-22T22:46:07Z
2021-11-22T20:47:43Z,42.805,6.029,13.3028,4.60080,2470.287,2021-11-22T22:49:10Z
2021-11-22T20:50:46Z,42.805,6.029,13.3036,4.60087,2470.31,2021-11-22T22:52:13Z
2021-11-22T20:53:49Z,42.805,6.029,13.3042,4.60072,2470.334,2021-11-22T22:55:16Z
2021-11-22T20:56:52Z,42.805,6.029,13.3045,4.60075,2470.31,2021-11-22T22:58:19Z
2021-11-22T20:59:56Z,42.805,6.029,13.3043,4.60063,2470.297,2021-11-22T23:01:22Z
2021-11-22T21:02:59Z,42.805,6.029,13.3032,4.60095,2470.357,2021-11-22T23:04:25Z
2021-11-22T21:06:02Z,42.805,6.029,13.3041,4.60096,2470.343,2021-11-22T23:07:28Z
2021-11-22T21:09:05Z,42.805,6.029,13.3044,4.60082,2470.334,2021-11-22T23:10:32Z
2021-11-22T21:12:08Z,42.805,6.029,13.3051,4.60078,2470.297,2021-11-22T23:13:35Z
2021-11-22T21:15:11Z,42.805,6.029,13.3038,4.60097,2470.334,2021-11-22T23:16:38Z
2021-11-22T21:18:14Z,42.805,6.029,13.3049,4.60102,2470.297,2021-11-22T23:19:41Z
2021-11-22T21:21:18Z,42.805,6.029,13.3039,4.60097,2470.334,2021-11-22T23:22:44Z
2021-11-22T21:24:21Z,42.805,6.029,13.3043,4.60078,2470.334,2021-11-22T23:25:47Z
2021-11-22T21:27:24Z,42.805,6.029,13.3031,4.60084,2470.32,2021-11-22T23:28:50Z
2021-11-22T21:30:27Z,42.805,6.029,13.3035,4.60119,2470.31,2021-11-22T23:31:54Z
2021-11-22T21:33:30Z,42.805,6.029,13.3036,4.60093,2470.297,2021-11-22T23:34:57Z
2021-11-22T21:36:33Z,42.805,6.029,13.3039,4.60057,2470.343,2021-11-22T23:38:00Z
2021-11-22T21:39:36Z,42.805,6.029,13.3036,4.60079,2470.32,2021-11-22T23:41:03Z
2021-11-22T21:42:39Z,42.805,6.029,13.3031,4.60081,2470.31,2021-11-22T23:44:06Z
2021-11-22T21:45:43Z,42.805,6.029,13.3041,4.60132,2470.297,2021-11-22T23:47:09Z
2021-11-22T21:48:46Z,42.805,6.029,13.3030,4.60059,2470.297,2021-11-22T23:50:12Z
2021-11-22T21:51:49Z,42.805,6.029,13.3053,4.60092,2470.297,2021-11-22T23:53:15Z
2021-11-22T21:54:52Z,42.805,6.029,13.3041,4.60091,2470.334,2021-11-22T23:56:19Z
2021-11-22T21:57:55Z,42.805,6.029,13.3045,4.60090,2470.287,2021-11-22T23:59:22Z
2021-11-22T22:00:58Z,42.805,6.029,13.3059,4.60127,2470.31,2021-11-23T00:02:25Z
2021-11-22T22:04:01Z,42.805,6.029,13.3073,4.60107,2470.297,2021-11-23T00:05:28Z
2021-11-22T22:07:04Z,42.805,6.029,13.3054,4.60086,2470.297,2021-11-23T00:08:31Z
2021-11-22T22:10:08Z,42.805,6.029,13.3054,4.60095,2470.297,2021-11-23T00:11:34Z
2021-11-22T22:13:11Z,42.805,6.029,13.3043,4.60117,2470.297,2021-11-23T00:14:37Z
2021-11-22T22:16:14Z,42.805,6.029,13.3042,4.60142,2470.31,2021-11-23T00:17:40Z
2021-11-22T22:19:17Z,42.805,6.029,13.3066,4.60113,2470.32,2021-11-23T00:20:44Z
2021-11-22T22:22:20Z,42.805,6.029,13.3066,4.60113,2470.287,2021-11-23T00:23:47Z
2021-11-22T22:25:23Z,42.805,6.029,13.3082,4.60114,2470.31,2021-11-23T00:26:50Z
2021-11-22T22:28:26Z,42.805,6.029,13.3069,4.60121,2470.273,2021-11-23T00:29:53Z
2021-11-22T22:31:29Z,42.805,6.029,13.3094,4.60122,2470.264,2021-11-23T00:32:56Z
2021-11-22T22:34:33Z,42.805,6.029,13.3041,4.60105,2470.25,2021-11-23T00:35:59Z
2021-11-22T22:37:36Z,42.805,6.029,13.3044,4.60094,2470.297,2021-11-23T00:39:02Z
2021-11-22T22:40:39Z,42.805,6.029,13.3067,4.60134,2470.287,2021-11-23T00:42:05Z
2021-11-22T22:43:42Z,42.805,6.029,13.3070,4.60077,2470.287,2021-11-23T00:45:09Z
2021-11-22T22:46:45Z,42.805,6.029,13.3076,4.60061,2470.24,2021-11-23T00:48:12Z
2021-11-22T22:49:48Z,42.805,6.029,13.3055,4.60092,2470.297,2021-11-23T00:51:15Z
2021-11-22T22:52:51Z,42.805,6.029,13.3059,4.60079,2470.264,2021-11-23T00:54:18Z
2021-11-22T22:55:54Z,42.805,6.029,13.3047,4.60056,2470.287,2021-11-23T00:57:21Z
2021-11-22T22:58:58Z,42.805,6.029,13.3043,4.60091,2470.31,2021-11-23T01:00:24Z
2021-11-22T23:02:01Z,42.805,6.029,13.3066,4.60087,2470.287,2021-11-23T01:03:27Z
2021-11-22T23:05:04Z,42.805,6.029,13.3067,4.60099,2470.287,2021-11-23T01:06:30Z
2021-11-22T23:08:07Z,42.805,6.029,13.3051,4.60067,2470.227,2021-11-23T01:09:34Z
2021-11-22T23:11:10Z,42.805,6.029,13.3054,4.60059,2470.273,2021-11-23T01:12:37Z
2021-11-22T23:14:13Z,42.805,6.029,13.3039,4.60116,2470.236,2021-11-23T01:15:40Z
2021-11-22T23:17:16Z,42.805,6.029,13.3048,4.60071,2470.25,2021-11-23T01:18:43Z
2021-11-22T23:20:19Z,42.805,6.029,13.3060,4.60069,2470.301,2021-11-23T01:21:46Z
2021-11-22T23:23:23Z,42.805,6.029,13.3063,4.60108,2470.264,2021-11-23T01:24:49Z
2021-11-22T23:26:26Z,42.805,6.029,13.3062,4.60122,2470.273,2021-11-23T01:27:52Z
2021-11-22T23:29:29Z,42.805,6.029,13.3043,4.60112,2470.227,2021-11-23T01:30:55Z
2021-11-22T23:32:32Z,42.805,6.029,13.3071,4.60111,2470.203,2021-11-23T01:33:59Z
2021-11-22T23:35:35Z,42.805,6.029,13.3061,4.60108,2470.25,2021-11-23T01:37:02Z
2021-11-22T23:38:38Z,42.805,6.029,13.3047,4.60149,2470.264,2021-11-23T01:40:05Z
2021-11-22T23:41:41Z,42.805,6.029,13.3062,4.60064,2470.227,2021-11-23T01:43:08Z
2021-11-22T23:44:44Z,42.805,6.029,13.3069,4.60081,2470.24,2021-11-23T01:46:11Z
2021-11-22T23:47:48Z,42.805,6.029,13.3066,4.60074,2470.24,2021-11-23T01:49:14Z
2021-11-22T23:50:51Z,42.805,6.029,13.3045,4.60065,2470.264,2021-11-23T01:52:17Z
2021-11-22T23:53:54Z,42.805,6.029,13.3014,4.60047,2470.227,2021-11-23T01:55:20Z
2021-11-22T23:56:57Z,42.805,6.029,13.3019,4.60053,2470.25,2021-11-23T01:58:24Z
